Time,TemperatureF,DewpointF,PressureIn,WindDirection,WindDirectionDegrees,WindSpeedMPH,WindSpeedGustMPH,Humidity,HourlyPrecipIn,Conditions,Clouds,dailyrainin,SoftwareType,DateUTC
2013-07-26 00:22:00,58.0,57.0,-100.00,NE,44,1.0,2.0,97,-99.99,,,-99.99,,2013-07-26 08:22:00,
2013-07-26 00:32:00,58.0,57.0,-100.00,NE,44,1.0,2.0,97,0.00,,,0.04,,2013-07-26 08:32:00,
2013-07-26 00:44:00,58.0,57.0,-100.00,NE,44,1.0,2.0,97,0.00,,,0.04,,2013-07-26 08:44:00,
2013-07-26 00:52:00,58.0,57.0,-100.00,NE,44,1.0,2.0,97,0.00,,,0.04,,2013-07-26 08:52:00,
2013-07-26 01:12:00,58.0,57.0,-100.00,East,88,0.0,2.0,97,-99.99,,,-99.99,,2013-07-26 09:12:00,
2013-07-26 01:22:00,58.0,57.0,-100.00,East,88,0.0,2.0,97,0.00,,,0.04,,2013-07-26 09:22:00,
2013-07-26 01:32:00,58.0,57.0,-100.00,East,88,0.0,2.0,97,0.00,,,0.04,,2013-07-26 09:32:00,
2013-07-26 01:43:00,58.0,57.0,-100.00,East,88,0.0,2.0,97,0.00,,,0.04,,2013-07-26 09:43:00,
2013-07-26 01:52:00,58.0,57.0,-100.00,East,88,0.0,2.0,97,0.00,,,0.04,,2013-07-26 09:52:00,
2013-07-26 02:22:00,58.0,57.0,-100.00,ESE,102,0.0,0.0,98,0.00,,,0.04,,2013-07-26 10:22:00,
2013-07-26 02:33:00,58.0,57.0,-100.00,ESE,102,0.0,0.0,98,0.00,,,0.04,,2013-07-26 10:33:00,
2013-07-26 02:42:00,58.0,57.0,-100.00,ESE,102,0.0,0.0,98,0.00,,,0.04,,2013-07-26 10:42:00,
2013-07-26 02:52:00,58.0,57.0,-100.00,ESE,102,0.0,0.0,98,0.00,,,0.04,,2013-07-26 10:52:00,
2013-07-26 03:22:00,58.0,57.0,-100.00,ENE,65,0.0,2.0,98,0.00,,,0.04,,2013-07-26 11:22:00,
2013-07-26 03:32:00,58.0,57.0,-100.00,ENE,65,0.0,2.0,98,0.00,,,0.04,,2013-07-26 11:32:00,
2013-07-26 03:43:00,58.0,57.0,-100.00,ENE,65,0.0,2.0,98,0.00,,,0.04,,2013-07-26 11:43:00,
2013-07-26 03:52:00,58.0,57.0,-100.00,ENE,65,0.0,2.0,98,0.00,,,0.04,,2013-07-26 11:52:00,
2013-07-26 04:22:00,57.0,56.0,-100.00,NE,51,0.0,0.0,98,0.00,,,0.04,,2013-07-26 12:22:00,
2013-07-26 04:33:00,57.0,56.0,-100.00,NE,51,0.0,0.0,98,0.00,,,0.04,,2013-07-26 12:33:00,
2013-07-26 04:43:00,57.0,56.0,-100.00,NE,51,0.0,0.0,98,0.00,,,0.04,,2013-07-26 12:43:00,
2013-07-26 04:53:00,57.0,56.0,-100.00,NE,51,0.0,0.0,98,0.00,,,0.04,,2013-07-26 12:53:00,
2013-07-26 05:22:00,58.0,57.0,-100.00,SW,215,1.0,2.0,98,0.00,,,0.03,,2013-07-26 13:22:00,
2013-07-26 05:32:00,58.0,57.0,-100.00,SW,215,1.0,2.0,98,0.00,,,0.03,,2013-07-26 13:32:00,
2013-07-26 05:43:00,58.0,57.0,-100.00,SW,215,1.0,2.0,98,0.00,,,0.03,,2013-07-26 13:43:00,
2013-07-26 05:53:00,58.0,57.0,-100.00,SW,215,1.0,2.0,98,0.00,,,0.03,,2013-07-26 13:53:00,
2013-07-26 06:22:00,58.0,57.0,-100.00,NE,39,1.0,2.0,98,-99.99,,,-99.99,,2013-07-26 14:22:00,
2013-07-26 06:43:00,58.0,57.0,-100.00,NE,39,1.0,2.0,98,0.00,,,0.02,,2013-07-26 14:43:00,
2013-07-26 06:53:00,58.0,57.0,-100.00,NE,39,1.0,2.0,98,0.00,,,0.02,,2013-07-26 14:53:00,
2013-07-26 07:22:00,60.0,59.0,-100.00,WNW,302,1.0,5.0,95,0.00,,,0.02,,2013-07-26 15:22:00,
2013-07-26 07:32:00,60.0,59.0,-100.00,WNW,302,1.0,5.0,95,0.00,,,0.02,,2013-07-26 15:32:00,
2013-07-26 07:43:00,60.0,59.0,-100.00,WNW,302,1.0,5.0,95,0.00,,,0.02,,2013-07-26 15:43:00,
2013-07-26 07:53:00,60.0,59.0,-100.00,WNW,302,1.0,5.0,95,0.00,,,0.02,,2013-07-26 15:53:00,
2013-07-26 08:43:00,60.0,57.0,-100.00,WNW,299,2.0,5.0,90,0.00,,,0.01,,2013-07-26 16:43:00,
2013-07-26 08:53:00,60.0,57.0,-100.00,WNW,299,2.0,5.0,90,0.00,,,0.01,,2013-07-26 16:53:00,
2013-07-26 09:22:00,60.0,58.0,-100.00,East,98,1.0,4.0,93,0.01,,,0.01,,2013-07-26 17:22:00,
2013-07-26 09:33:00,60.0,58.0,-100.00,East,98,1.0,4.0,93,0.01,,,0.01,,2013-07-26 17:33:00,
2013-07-26 09:43:00,60.0,58.0,-100.00,East,98,1.0,4.0,93,0.01,,,0.01,,2013-07-26 17:43:00,
2013-07-26 09:52:00,60.0,58.0,-100.00,East,98,1.0,4.0,93,0.01,,,0.01,,2013-07-26 17:52:00,
2013-07-26 10:22:00,60.0,58.0,-100.00,NE,50,1.0,5.0,94,0.00,,,0.01,,2013-07-26 18:22:00,
2013-07-26 10:33:00,60.0,58.0,-100.00,NE,50,1.0,5.0,94,0.00,,,0.01,,2013-07-26 18:33:00,
2013-07-26 10:43:00,60.0,58.0,-100.00,NE,50,1.0,5.0,94,0.00,,,0.01,,2013-07-26 18:43:00,
2013-07-26 10:52:00,60.0,58.0,-100.00,NE,50,1.0,5.0,94,0.00,,,0.01,,2013-07-26 18:52:00,
2013-07-26 11:43:00,61.0,59.0,-100.00,ENE,67,2.0,4.0,93,0.00,,,0.01,,2013-07-26 19:43:00,
2013-07-26 11:52:00,61.0,59.0,-100.00,ENE,67,2.0,4.0,93,0.00,,,0.01,,2013-07-26 19:52:00,
2013-07-26 12:22:00,63.0,59.0,-100.00,ENE,58,1.0,4.0,88,0.00,,,0.01,,2013-07-26 20:22:00,
2013-07-26 12:32:00,63.0,59.0,-100.00,ENE,58,1.0,4.0,88,0.00,,,0.01,,2013-07-26 20:32:00,
2013-07-26 12:43:00,63.0,59.0,-100.00,ENE,58,1.0,4.0,88,0.00,,,0.01,,2013-07-26 20:43:00,
2013-07-26 12:52:00,63.0,59.0,-100.00,ENE,58,1.0,4.0,88,0.00,,,0.01,,2013-07-26 20:52:00,
2013-07-26 14:32:00,66.0,59.0,-100.00,WSW,243,3.0,6.0,78,0.00,,,0.01,,2013-07-26 22:32:00,
2013-07-26 14:43:00,66.0,59.0,-100.00,WSW,243,3.0,6.0,78,0.00,,,0.01,,2013-07-26 22:43:00,
2013-07-26 14:53:00,66.0,59.0,-100.00,WSW,243,3.0,6.0,78,0.00,,,0.01,,2013-07-26 22:53:00,
2013-07-26 15:22:00,71.0,60.0,-100.00,WSW,242,4.0,9.0,68,0.00,,,0.01,,2013-07-26 23:22:00,
2013-07-26 15:32:00,71.0,60.0,-100.00,WSW,242,4.0,9.0,68,0.00,,,0.01,,2013-07-26 23:32:00,
2013-07-26 15:43:00,71.0,60.0,-100.00,WSW,242,4.0,9.0,68,0.00,,,0.01,,2013-07-26 23:43:00,
2013-07-26 15:52:00,71.0,60.0,-100.00,WSW,242,4.0,9.0,68,0.00,,,0.01,,2013-07-26 23:52:00,
2013-07-26 16:22:00,69.0,58.0,-100.00,WSW,239,4.0,10.0,69,0.00,,,0.01,,2013-07-27 00:22:00,
2013-07-26 16:32:00,69.0,58.0,-100.00,WSW,239,4.0,10.0,69,0.00,,,0.01,,2013-07-27 00:32:00,
2013-07-26 16:42:00,69.0,58.0,-100.00,WSW,239,4.0,10.0,69,0.00,,,0.01,,2013-07-27 00:42:00,
2013-07-26 16:53:00,69.0,58.0,-100.00,WSW,239,4.0,10.0,69,0.00,,,0.01,,2013-07-27 00:53:00,
2013-07-26 17:01:00,72.0,60.0,-100.00,WSW,256,3.0,9.0,65,-99.99,,,-99.99,,2013-07-27 01:01:00,
2013-07-26 17:22:00,72.0,60.0,-100.00,WSW,256,3.0,9.0,65,0.00,,,0.01,,2013-07-27 01:22:00,
2013-07-26 17:32:00,72.0,60.0,-100.00,WSW,256,3.0,9.0,65,0.00,,,0.01,,2013-07-27 01:32:00,
2013-07-26 17:43:00,72.0,60.0,-100.00,WSW,256,3.0,9.0,65,0.00,,,0.01,,2013-07-27 01:43:00,
2013-07-26 17:53:00,72.0,60.0,-100.00,WSW,256,3.0,9.0,65,0.00,,,0.01,,2013-07-27 01:53:00,
2013-07-26 18:22:00,72.0,57.0,-100.00,WSW,244,4.0,10.0,60,0.00,,,0.01,,2013-07-27 02:22:00,
2013-07-26 18:32:00,72.0,57.0,-100.00,WSW,244,4.0,10.0,60,0.00,,,0.01,,2013-07-27 02:32:00,
2013-07-26 18:43:00,72.0,57.0,-100.00,WSW,244,4.0,10.0,60,0.00,,,0.01,,2013-07-27 02:43:00,
2013-07-26 18:52:00,72.0,57.0,-100.00,WSW,244,4.0,10.0,60,0.00,,,0.01,,2013-07-27 02:52:00,
2013-07-26 19:44:00,72.0,60.0,-100.00,West,268,5.0,9.0,66,0.00,,,0.01,,2013-07-27 03:44:00,
2013-07-26 19:52:00,72.0,60.0,-100.00,West,268,5.0,9.0,66,0.00,,,0.01,,2013-07-27 03:52:00,
2013-07-26 20:22:00,70.0,59.0,-100.00,West,263,5.0,8.0,67,0.00,,,0.01,,2013-07-27 04:22:00,
2013-07-26 20:32:00,70.0,59.0,-100.00,West,263,5.0,8.0,67,0.00,,,0.01,,2013-07-27 04:32:00,
2013-07-26 20:43:00,70.0,59.0,-100.00,West,263,5.0,8.0,67,0.00,,,0.01,,2013-07-27 04:43:00,
2013-07-26 20:53:00,70.0,59.0,-100.00,West,263,5.0,8.0,67,0.00,,,0.01,,2013-07-27 04:53:00,
2013-07-26 21:22:00,67.0,57.0,-100.00,WNW,290,3.0,8.0,70,0.00,,,0.01,,2013-07-27 05:22:00,
2013-07-26 21:32:00,67.0,57.0,-100.00,WNW,290,3.0,8.0,70,0.00,,,0.01,,2013-07-27 05:32:00,
2013-07-26 21:43:00,67.0,57.0,-100.00,WNW,290,3.0,8.0,70,0.00,,,0.01,,2013-07-27 05:43:00,
2013-07-26 21:52:00,67.0,57.0,-100.00,WNW,290,3.0,8.0,70,0.00,,,0.01,,2013-07-27 05:52:00,
2013-07-26 22:22:00,63.0,55.0,-100.00,ENE,64,1.0,4.0,75,-99.99,,,-99.99,,2013-07-27 06:22:00,
2013-07-26 22:43:00,63.0,55.0,-100.00,ENE,64,1.0,5.0,75,0.00,,,0.01,,2013-07-27 06:43:00,
2013-07-26 22:52:00,63.0,55.0,-100.00,ENE,64,1.0,5.0,75,0.00,,,0.01,,2013-07-27 06:52:00,
2013-07-26 23:22:00,61.0,57.0,-100.00,NNE,12,0.0,0.0,86,0.00,,,0.01,,2013-07-27 07:22:00,
2013-07-26 23:33:00,61.0,57.0,-100.00,NNE,12,0.0,0.0,86,0.00,,,0.01,,2013-07-27 07:33:00,
2013-07-26 23:43:00,61.0,57.0,-100.00,NNE,12,0.0,0.0,86,0.00,,,0.01,,2013-07-27 07:43:00,
2013-07-26 23:52:00,61.0,57.0,-100.00,NNE,12,0.0,0.0,86,0.00,,,0.01,,2013-07-27 07:52:00,